SL-14 DEB, 45302

Orbit data source: Space-Track

SL-14 DEB, 45302 is space debris in LEO originally from a launch on Thu, 15 Aug 1991 UTC launched from the Plesetsk Missile And Space Complex (PKMTR). Debris objects in space refer to the collection of defunct objects orbiting the Earth. Examples of debris include non-operational satellites, rocket bodies, and fragments generated from explosions, collisions, or faulty payload assembly.

Loading next visibility...
Identifier
45302, 1991-056AQ
Orbit
LEO
Country
Flag of CISCIS
Related business
Manufacturer
Unknown
Mission
Spacecraft
Bus & Motor
Unknown
Mass
Unknown
Launch date (UTC)
1991-08-15 (34 years ago)
Launch vehicle
Unknown
Launch site
Plesetsk Missile And Space Complex (PKMTR)
Object type
Payload
Rocket body
Debris
Shape & HBR
Unknown shape, 0.1 m
Radar Cross Section
Small (<0.1 m²)

Expand to show TLE details & history
Last TLE update: 11 hours ago

TLE from 11 hours ago
0 SL-14 DEB
1 45302U 91056AQ  25304.80889653  .00016573  00000-0  20472-1 0  9994
2 45302  82.5937 243.5535 0133316  70.9260 290.6270 13.61281583279864
Epoch: 2025-10-31T19:24Z
TLE epoch observation values (Epoch: 2025-10-31T19:24:48.660Z)
Latitude
-0.00006°
Longitude
-87.99727°
Altitude
1,000.268 km
Speed
7.368 km/s
True Right ascension
16h 14m 12s
True Declination
0° 00' 00"
Sunlit
Object was in daylight at epoch
Visualization orbit readout
Latitude
Unknown
Longitude
Unknown
Altitude
Unknown
Speed
Unknown
Apparent Right ascension
Unknown
Apparent Declination
Unknown
Sunlit
N/A
Visualization observer readout
Local Sidereal Time
02:14:47
Azimuth
Unknown
Elevation
Unknown
Doppler factor
Unknown
Orbital elements
Apogee altitude
1,126.957 km
Perigee altitude
929.48 km
Semi-major axis
7,406.356 km
Eccentricity
0.01333
Inclination
82.5937°
RAAN
243.5535°
Arg. of periapsis
70.926°
True anomaly
289.18896°
Mean anomaly
290.627°
Eccentric anomaly
289.90881°
Mean motion
3.40515 °/min
Orbital period
105.72 mins
BSTAR
0.020472
Loading maneuver chart data...
Computing Atmospheric mass density...
Loading historical data...
Loading historical data...
Loading historical data...
Loading historical data...
Loading historical data...
Loading historical data...
Loading historical data...

Documentation

Showing up to 5 results
|